When you browse on this site, cookies collect data to enhance your experience and personalize the content and advertising you see.
Visit our Privacy Policy to learn more. By continuing to use the site, you agree to this use of cookies and data.
EN

Hourly Weather Barddhaman

Today, 10 July, Friday

Time Temperature Precipitation Wind Pressure Humidity
00:00 +31°C° 0 mm 2 mps 747 mmHg 73%
01:00 +31°C° 0.2 mm 3 mps 747 mmHg 75%
02:00 +31°C° 0.2 mm 3 mps 746 mmHg 76%
03:00 +30°C° 0.2 mm 3 mps 746 mmHg 77%
04:00 +30°C° 0 mm 4 mps 746 mmHg 77%
05:00 +30°C° 0 mm 4 mps 746 mmHg 77%
06:00 +30°C° 0 mm 4 mps 746 mmHg 78%
07:00 +32°C° 0 mm 5 mps 747 mmHg 73%
08:00 +33°C° 0 mm 5 mps 747 mmHg 68%
09:00 +35°C° 0 mm 5 mps 747 mmHg 63%
10:00 +36°C° 0 mm 5 mps 747 mmHg 58%
11:00 +37°C° 0 mm 5 mps 747 mmHg 53%
12:00 +40°C° 0 mm 5 mps 747 mmHg 48%
13:00 +40°C° 0 mm 5 mps 747 mmHg 48%
14:00 +40°C° 0 mm 5 mps 746 mmHg 48%
15:00 +40°C° 0 mm 5 mps 745 mmHg 48%
16:00 +39°C° 0.4 mm 5 mps 745 mmHg 52%
17:00 +37°C° 0.4 mm 5 mps 745 mmHg 55%
18:00 +36°C° 0.4 mm 5 mps 745 mmHg 59%
19:00 +35°C° 2.3 mm 5 mps 745 mmHg 64%
20:00 +34°C° 2.3 mm 5 mps 746 mmHg 68%
21:00 +33°C° 2.3 mm 5 mps 746 mmHg 73%
22:00 +33°C° 1.7 mm 5 mps 746 mmHg 74%
23:00 +33°C° 1.7 mm 6 mps 746 mmHg 76%

Tomorrow, 11 July, Saturday

Time Temperature Precipitation Wind Pressure Humidity
00:00 +32°C° 1.7 mm 6 mps 746 mmHg 77%
01:00 +32°C° 2.4 mm 6 mps 746 mmHg 79%
02:00 +32°C° 2.4 mm 5 mps 746 mmHg 80%
03:00 +30°C° 2.4 mm 5 mps 745 mmHg 82%
04:00 +30°C° 2.4 mm 5 mps 745 mmHg 83%
05:00 +30°C° 2.4 mm 4 mps 746 mmHg 84%
06:00 +29°C° 2.4 mm 4 mps 746 mmHg 85%
07:00 +29°C° 0.6 mm 4 mps 746 mmHg 85%
08:00 +29°C° 0.6 mm 3 mps 746 mmHg 85%
09:00 +29°C° 0.6 mm 2 mps 746 mmHg 84%
10:00 +31°C° 0 mm 2 mps 746 mmHg 78%
11:00 +33°C° 0 mm 3 mps 746 mmHg 72%
12:00 +35°C° 0 mm 3 mps 746 mmHg 65%
13:00 +35°C° 0.5 mm 3 mps 746 mmHg 63%
14:00 +36°C° 0.5 mm 3 mps 745 mmHg 62%
15:00 +36°C° 0.5 mm 3 mps 745 mmHg 60%
16:00 +36°C° 0.9 mm 3 mps 745 mmHg 63%
17:00 +35°C° 0.9 mm 3 mps 745 mmHg 66%
18:00 +34°C° 0.9 mm 2 mps 745 mmHg 70%
19:00 +34°C° 0 mm 2 mps 745 mmHg 72%
20:00 +32°C° 0 mm 2 mps 746 mmHg 74%
21:00 +31°C° 0 mm 2 mps 746 mmHg 76%
22:00 +31°C° 0 mm 2 mps 746 mmHg 78%
23:00 +31°C° 0 mm 2 mps 746 mmHg 79%

Day after tomorrow, 12 July, Sunday

Time Temperature Precipitation Wind Pressure Humidity
00:00 +31°C° 0 mm 2 mps 747 mmHg 80%
01:00 +31°C° 0.3 mm 2 mps 746 mmHg 81%
02:00 +30°C° 0.3 mm 2 mps 746 mmHg 81%
03:00 +30°C° 0.3 mm 2 mps 746 mmHg 82%
04:00 +30°C° 0.4 mm 2 mps 746 mmHg 82%
05:00 +30°C° 0.4 mm 2 mps 746 mmHg 81%
06:00 +30°C° 0.4 mm 3 mps 746 mmHg 81%
07:00 +31°C° 0 mm 3 mps 746 mmHg 77%
08:00 +31°C° 0 mm 3 mps 747 mmHg 73%
09:00 +33°C° 0 mm 4 mps 747 mmHg 70%
10:00 +34°C° 0 mm 4 mps 747 mmHg 66%
11:00 +35°C° 0 mm 4 mps 747 mmHg 63%
12:00 +36°C° 0 mm 4 mps 747 mmHg 59%
13:00 +36°C° 0.6 mm 4 mps 746 mmHg 59%
14:00 +36°C° 0.6 mm 4 mps 746 mmHg 60%
15:00 +36°C° 0.6 mm 3 mps 746 mmHg 60%
16:00 +35°C° 0.6 mm 4 mps 746 mmHg 63%
17:00 +34°C° 0.6 mm 4 mps 746 mmHg 67%
18:00 +33°C° 0.6 mm 4 mps 746 mmHg 71%
19:00 +33°C° 1.1 mm 4 mps 747 mmHg 74%
20:00 +32°C° 1.1 mm 4 mps 747 mmHg 78%
21:00 +30°C° 1.1 mm 4 mps 748 mmHg 81%
22:00 +30°C° 0.2 mm 4 mps 748 mmHg 82%
23:00 +30°C° 0.2 mm 4 mps 748 mmHg 83%

13 July, Monday

Time Temperature Precipitation Wind Pressure Humidity
00:00 +30°C° 0.2 mm 4 mps 747 mmHg 84%
01:00 +30°C° 0.4 mm 4 mps 747 mmHg 84%
02:00 +30°C° 0.4 mm 4 mps 747 mmHg 84%
03:00 +29°C° 0.4 mm 4 mps 746 mmHg 84%
04:00 +29°C° 0 mm 4 mps 747 mmHg 84%
05:00 +29°C° 0 mm 4 mps 747 mmHg 85%
06:00 +29°C° 0 mm 3 mps 747 mmHg 85%
07:00 +30°C° 0.1 mm 4 mps 747 mmHg 82%
08:00 +30°C° 0.1 mm 4 mps 748 mmHg 78%
09:00 +32°C° 0.1 mm 5 mps 748 mmHg 75%
10:00 +32°C° 0.4 mm 5 mps 748 mmHg 73%
11:00 +33°C° 0.4 mm 5 mps 748 mmHg 72%
12:00 +33°C° 0.4 mm 5 mps 748 mmHg 70%
13:00 +33°C° 0.6 mm 5 mps 748 mmHg 72%
14:00 +32°C° 0.6 mm 5 mps 748 mmHg 74%
15:00 +32°C° 0.6 mm 5 mps 747 mmHg 76%
16:00 +30°C° 0.1 mm 5 mps 747 mmHg 76%
17:00 +30°C° 0.1 mm 4 mps 747 mmHg 77%
18:00 +30°C° 0.1 mm 4 mps 748 mmHg 77%
19:00 +29°C° 0 mm 4 mps 748 mmHg 79%
20:00 +29°C° 0 mm 4 mps 749 mmHg 81%
21:00 +28°C° 0 mm 4 mps 749 mmHg 84%
22:00 +28°C° 0.1 mm 4 mps 749 mmHg 85%
23:00 +28°C° 0.1 mm 4 mps 750 mmHg 85%

14 July, Tuesday

Time Temperature Precipitation Wind Pressure Humidity
00:00 +28°C° 0.1 mm 3 mps 750 mmHg 86%
01:00 +28°C° 0.2 mm 3 mps 750 mmHg 87%
02:00 +28°C° 0.2 mm 3 mps 749 mmHg 87%
03:00 +28°C° 0.2 mm 3 mps 749 mmHg 87%
04:00 +28°C° 0.2 mm 3 mps 749 mmHg 87%
05:00 +28°C° 0.2 mm 3 mps 750 mmHg 86%
06:00 +28°C° 0.2 mm 3 mps 750 mmHg 86%
07:00 +29°C° 0.1 mm 3 mps 750 mmHg 81%
08:00 +30°C° 0.1 mm 3 mps 751 mmHg 76%
09:00 +31°C° 0.1 mm 3 mps 751 mmHg 71%
10:00 +33°C° 0.3 mm 3 mps 751 mmHg 66%
11:00 +35°C° 0.3 mm 4 mps 751 mmHg 61%
12:00 +36°C° 0.3 mm 4 mps 751 mmHg 56%
13:00 +36°C° 0.7 mm 4 mps 750 mmHg 56%
14:00 +36°C° 0.7 mm 4 mps 749 mmHg 57%
15:00 +36°C° 0.7 mm 4 mps 749 mmHg 57%
16:00 +36°C° 1 mm 4 mps 749 mmHg 59%
17:00 +35°C° 1 mm 4 mps 749 mmHg 62%
18:00 +35°C° 1 mm 4 mps 748 mmHg 64%
19:00 +34°C° 0.1 mm 4 mps 749 mmHg 68%
20:00 +33°C° 0.1 mm 4 mps 749 mmHg 71%
21:00 +32°C° 0.1 mm 4 mps 750 mmHg 75%
22:00 +30°C° 0 mm 4 mps 750 mmHg 78%
23:00 +30°C° 0 mm 3 mps 750 mmHg 80%

15 July, Wednesday

Time Temperature Precipitation Wind Pressure Humidity
00:00 +30°C° 0 mm 3 mps 751 mmHg 83%
01:00 +29°C° 0 mm 2 mps 750 mmHg 85%
02:00 +29°C° 0 mm 2 mps 750 mmHg 86%
03:00 +29°C° 0 mm 2 mps 750 mmHg 88%
04:00 +29°C° 0 mm 2 mps 750 mmHg 88%
05:00 +29°C° 0 mm 2 mps 750 mmHg 89%
06:00 +29°C° 0 mm 2 mps 750 mmHg 89%
07:00 +30°C° 0 mm 2 mps 750 mmHg 81%
08:00 +31°C° 0 mm 3 mps 750 mmHg 74%
09:00 +34°C° 0 mm 3 mps 751 mmHg 66%
10:00 +35°C° 0 mm 3 mps 750 mmHg 61%
11:00 +36°C° 0 mm 3 mps 750 mmHg 57%
12:00 +37°C° 0 mm 3 mps 750 mmHg 52%
13:00 +37°C° 0 mm 3 mps 749 mmHg 52%
14:00 +37°C° 0 mm 3 mps 748 mmHg 51%
15:00 +38°C° 0 mm 3 mps 748 mmHg 51%
16:00 +37°C° 0 mm 4 mps 747 mmHg 53%
17:00 +36°C° 0 mm 4 mps 747 mmHg 56%
18:00 +36°C° 0 mm 4 mps 747 mmHg 59%
19:00 +35°C° 0 mm 4 mps 747 mmHg 64%
20:00 +34°C° 0 mm 5 mps 748 mmHg 69%
21:00 +33°C° 0 mm 5 mps 748 mmHg 73%
22:00 +32°C° 0 mm 5 mps 748 mmHg 76%
23:00 +32°C° 0 mm 4 mps 749 mmHg 78%
Show more